• In Deutschland
  • Länderverzeichnis
  • Für 7 Tage
  • Wassertemperatur
  • Satellitenkarten
  • Wetterkarte
  • Widgets
  • user-avatar
    Anmelden

    Stündliche Wetter Fuqing

    Heute, 23 November, Donnerstag

    Zeit Temperatur Niederschläge Wind Luftdruck Luftfeuchtigkeit
    00:00 +15°C° 0 mm 5 m/S 756 mmHg 74%
    01:00 +14°C° 0 mm 5 m/S 756 mmHg 73%
    02:00 +14°C° 0 mm 5 m/S 756 mmHg 72%
    03:00 +14°C° 0 mm 5 m/S 756 mmHg 72%
    04:00 +13°C° 0 mm 5 m/S 757 mmHg 72%
    05:00 +13°C° 0 mm 5 m/S 757 mmHg 72%
    06:00 +13°C° 0 mm 5 m/S 757 mmHg 71%
    07:00 +13°C° 0 mm 6 m/S 758 mmHg 69%
    08:00 +14°C° 0 mm 6 m/S 758 mmHg 68%
    09:00 +15°C° 0 mm 6 m/S 758 mmHg 62%
    10:00 +16°C° 0 mm 7 m/S 758 mmHg 57%
    11:00 +17°C° 0 mm 7 m/S 758 mmHg 51%
    12:00 +17°C° 0 mm 7 m/S 757 mmHg 51%
    13:00 +17°C° 0 mm 7 m/S 757 mmHg 50%
    14:00 +19°C° 0 mm 6 m/S 756 mmHg 51%
    15:00 +17°C° 0 mm 6 m/S 756 mmHg 55%
    16:00 +16°C° 0 mm 6 m/S 756 mmHg 59%
    17:00 +15°C° 0 mm 6 m/S 756 mmHg 63%
    18:00 +15°C° 0 mm 6 m/S 757 mmHg 65%
    19:00 +14°C° 0 mm 6 m/S 757 mmHg 67%
    20:00 +14°C° 0 mm 6 m/S 758 mmHg 69%
    21:00 +14°C° 0 mm 6 m/S 758 mmHg 69%
    22:00 +14°C° 0 mm 6 m/S 758 mmHg 70%
    23:00 +14°C° 0 mm 6 m/S 759 mmHg 70%

    Morgen, 24 November, Freitag

    Zeit Temperatur Niederschläge Wind Luftdruck Luftfeuchtigkeit
    00:00 +14°C° 0 mm 6 m/S 759 mmHg 70%
    01:00 +14°C° 0 mm 6 m/S 758 mmHg 71%
    02:00 +14°C° 0 mm 6 m/S 758 mmHg 71%
    03:00 +13°C° 0,1 mm 6 m/S 759 mmHg 73%
    04:00 +13°C° 0,1 mm 6 m/S 759 mmHg 74%
    05:00 +13°C° 0,1 mm 6 m/S 759 mmHg 75%
    06:00 +13°C° 0,3 mm 6 m/S 759 mmHg 78%
    07:00 +13°C° 0,3 mm 6 m/S 760 mmHg 80%
    08:00 +11°C° 0,3 mm 6 m/S 760 mmHg 82%
    09:00 +11°C° 0,2 mm 6 m/S 760 mmHg 80%
    10:00 +13°C° 0,2 mm 6 m/S 760 mmHg 79%
    11:00 +13°C° 0,2 mm 6 m/S 760 mmHg 77%
    12:00 +13°C° 0,1 mm 6 m/S 760 mmHg 75%
    13:00 +14°C° 0,1 mm 6 m/S 759 mmHg 72%
    14:00 +14°C° 0,1 mm 6 m/S 759 mmHg 69%
    15:00 +14°C° 0 mm 6 m/S 759 mmHg 68%
    16:00 +14°C° 0 mm 6 m/S 759 mmHg 67%
    17:00 +14°C° 0 mm 6 m/S 759 mmHg 66%
    18:00 +14°C° 0,1 mm 6 m/S 759 mmHg 66%
    19:00 +13°C° 0,1 mm 6 m/S 760 mmHg 66%
    20:00 +13°C° 0,1 mm 6 m/S 760 mmHg 66%
    21:00 +13°C° 0,1 mm 6 m/S 760 mmHg 66%
    22:00 +13°C° 0,1 mm 6 m/S 760 mmHg 67%
    23:00 +13°C° 0,1 mm 6 m/S 760 mmHg 68%

    übermorgen, 25 November, Samstag

    Zeit Temperatur Niederschläge Wind Luftdruck Luftfeuchtigkeit
    00:00 +13°C° 0,3 mm 6 m/S 760 mmHg 71%
    01:00 +13°C° 0,3 mm 5 m/S 759 mmHg 74%
    02:00 +13°C° 0,3 mm 5 m/S 759 mmHg 77%
    03:00 +12°C° 1,2 mm 5 m/S 759 mmHg 79%
    04:00 +12°C° 1,2 mm 5 m/S 759 mmHg 82%
    05:00 +11°C° 1,2 mm 6 m/S 758 mmHg 85%
    06:00 +12°C° 1,7 mm 5 m/S 759 mmHg 86%
    07:00 +12°C° 1,7 mm 5 m/S 759 mmHg 87%
    08:00 +12°C° 1,7 mm 5 m/S 760 mmHg 88%
    09:00 +12°C° 1,2 mm 5 m/S 760 mmHg 88%
    10:00 +12°C° 1,2 mm 5 m/S 760 mmHg 88%
    11:00 +12°C° 1,2 mm 5 m/S 760 mmHg 89%
    12:00 +12°C° 1,2 mm 5 m/S 759 mmHg 89%
    13:00 +12°C° 1,2 mm 5 m/S 758 mmHg 89%
    14:00 +12°C° 1,2 mm 5 m/S 758 mmHg 89%
    15:00 +12°C° 1,6 mm 5 m/S 758 mmHg 90%
    16:00 +12°C° 1,6 mm 4 m/S 758 mmHg 90%
    17:00 +12°C° 1,6 mm 4 m/S 757 mmHg 91%
    18:00 +12°C° 1,3 mm 4 m/S 758 mmHg 91%
    19:00 +13°C° 1,3 mm 4 m/S 758 mmHg 91%
    20:00 +13°C° 1,3 mm 4 m/S 759 mmHg 91%
    21:00 +13°C° 1,4 mm 4 m/S 759 mmHg 92%
    22:00 +13°C° 1,4 mm 4 m/S 758 mmHg 92%
    23:00 +13°C° 1,4 mm 4 m/S 758 mmHg 92%

    26 November, Sonntag

    Zeit Temperatur Niederschläge Wind Luftdruck Luftfeuchtigkeit
    00:00 +13°C° 1,5 mm 4 m/S 758 mmHg 92%
    01:00 +13°C° 1,5 mm 4 m/S 758 mmHg 92%
    02:00 +13°C° 1,5 mm 4 m/S 757 mmHg 93%
    03:00 +14°C° 1,7 mm 4 m/S 757 mmHg 93%
    04:00 +14°C° 1,7 mm 4 m/S 757 mmHg 93%
    05:00 +14°C° 1,7 mm 4 m/S 757 mmHg 93%
    06:00 +14°C° 1 mm 4 m/S 757 mmHg 93%
    07:00 +14°C° 1 mm 3 m/S 757 mmHg 93%
    08:00 +14°C° 1 mm 3 m/S 758 mmHg 92%
    09:00 +16°C° 0,2 mm 3 m/S 758 mmHg 90%
    10:00 +17°C° 0,2 mm 3 m/S 758 mmHg 88%
    11:00 +17°C° 0,2 mm 3 m/S 758 mmHg 86%
    12:00 +18°C° 0 mm 4 m/S 757 mmHg 85%
    13:00 +18°C° 0 mm 4 m/S 757 mmHg 83%
    14:00 +19°C° 0 mm 4 m/S 756 mmHg 82%
    15:00 +18°C° 0 mm 4 m/S 756 mmHg 84%
    16:00 +17°C° 0 mm 5 m/S 756 mmHg 86%
    17:00 +16°C° 0 mm 5 m/S 756 mmHg 88%
    18:00 +16°C° 0 mm 5 m/S 757 mmHg 87%
    19:00 +16°C° 0 mm 6 m/S 757 mmHg 87%
    20:00 +16°C° 0 mm 6 m/S 758 mmHg 87%
    21:00 +15°C° 0 mm 6 m/S 758 mmHg 86%
    22:00 +15°C° 0 mm 7 m/S 758 mmHg 85%
    23:00 +15°C° 0 mm 7 m/S 758 mmHg 84%

    27 November, Montag

    Zeit Temperatur Niederschläge Wind Luftdruck Luftfeuchtigkeit
    00:00 +15°C° 0 mm 7 m/S 757 mmHg 83%
    01:00 +15°C° 0 mm 6 m/S 757 mmHg 83%
    02:00 +14°C° 0 mm 6 m/S 757 mmHg 82%
    03:00 +14°C° 0 mm 6 m/S 756 mmHg 82%
    04:00 +14°C° 0 mm 6 m/S 756 mmHg 81%
    05:00 +14°C° 0 mm 6 m/S 756 mmHg 81%
    06:00 +14°C° 0 mm 6 m/S 756 mmHg 80%
    07:00 +14°C° 0 mm 6 m/S 757 mmHg 80%
    08:00 +15°C° 0 mm 6 m/S 757 mmHg 79%
    09:00 +15°C° 0 mm 6 m/S 757 mmHg 77%
    10:00 +16°C° 0 mm 6 m/S 757 mmHg 76%
    11:00 +17°C° 0 mm 6 m/S 756 mmHg 74%
    12:00 +17°C° 0 mm 6 m/S 756 mmHg 73%
    13:00 +19°C° 0 mm 6 m/S 755 mmHg 73%
    14:00 +19°C° 0 mm 6 m/S 754 mmHg 72%
    15:00 +19°C° 0 mm 6 m/S 754 mmHg 75%
    16:00 +17°C° 0 mm 5 m/S 754 mmHg 77%
    17:00 +17°C° 0 mm 5 m/S 754 mmHg 80%
    18:00 +16°C° 0 mm 5 m/S 755 mmHg 81%
    19:00 +16°C° 0 mm 5 m/S 755 mmHg 83%
    20:00 +16°C° 0 mm 5 m/S 755 mmHg 84%
    21:00 +16°C° 0 mm 5 m/S 755 mmHg 84%
    22:00 +16°C° 0 mm 5 m/S 755 mmHg 85%
    23:00 +16°C° 0 mm 5 m/S 755 mmHg 85%

    28 November, Dienstag

    Zeit Temperatur Niederschläge Wind Luftdruck Luftfeuchtigkeit
    00:00 +17°C° 0 mm 4 m/S 755 mmHg 85%
    01:00 +17°C° 0 mm 4 m/S 754 mmHg 85%
    02:00 +17°C° 0 mm 4 m/S 754 mmHg 86%
    03:00 +17°C° 0 mm 4 m/S 754 mmHg 86%
    04:00 +17°C° 0 mm 4 m/S 754 mmHg 86%
    05:00 +17°C° 0 mm 4 m/S 754 mmHg 86%
    06:00 +18°C° 0 mm 4 m/S 754 mmHg 85%
    07:00 +18°C° 0 mm 4 m/S 754 mmHg 84%
    08:00 +19°C° 0 mm 3 m/S 755 mmHg 83%
    09:00 +21°C° 0 mm 3 m/S 755 mmHg 78%
    10:00 +24°C° 0 mm 3 m/S 754 mmHg 73%
    11:00 +26°C° 0 mm 3 m/S 754 mmHg 69%
    12:00 +26°C° 0 mm 3 m/S 754 mmHg 68%
    13:00 +27°C° 0 mm 3 m/S 753 mmHg 68%
    14:00 +27°C° 0 mm 4 m/S 753 mmHg 67%
    15:00 +26°C° 0 mm 3 m/S 753 mmHg 73%
    16:00 +25°C° 0 mm 3 m/S 753 mmHg 78%
    17:00 +22°C° 0 mm 3 m/S 753 mmHg 84%
    18:00 +22°C° 0 mm 3 m/S 753 mmHg 87%
    19:00 +21°C° 0 mm 3 m/S 754 mmHg 90%
    20:00 +21°C° 0 mm 3 m/S 754 mmHg 93%
    21:00 +21°C° 0 mm 4 m/S 754 mmHg 93%
    22:00 +21°C° 0 mm 4 m/S 754 mmHg 94%
    23:00 +20°C° 0 mm 4 m/S 754 mmHg 94%
    Mehr zeigen